Location: Mahannah Oil Field
(37.4664°N, 96.6003°W)
Time: 22:23:29
(UTC+00:00)

Transit 2A Rocket - Pass Details

Date: 25 January 2021
Orbit: 594 x 909 km, 66.7° (Epoch: 26 February)

Event Time Altitude Azimuth Distance (km) Brightness Sun altitude
Rises 02:18:19 0° 347° (NNW) 2,901 8.1 -30.9°
Enters shadow 02:18:36 - 349° (NNW) 2,803 8.0 -31.0°
Reaches altitude 10° 02:21:21 10° 8° (N) 1,959 - -31.5°
Maximum altitude 02:24:11 17° 49° (NE) 1,542 - -32.1°
Drops below altitude 10° 02:26:59 10° 90° (E) 1,925 - -32.6°
Sets 02:29:55 0° 112° (ESE) 2,827 - -33.2°
